This is the latest recevied weather packets stored in our database for station/object N6RDS-8. If no packets are shown the sender has not sent any weather packets the latest 1 day(s).
| Time | Temp. | Humidity | Pressure | Rain* | Wind** | Luminosity | Snow |
|---|---|---|---|---|---|---|---|
| 1778061370 | 8.33° C | 72% | 1018.5 hPa | 0 mm | - | 0 W/m² | - |
| 1778061066 | 8.89° C | 72% | 1018.5 hPa | 0 mm | - | 0 W/m² | - |
| 1778060461 | 7.78° C | 73% | 1018.5 hPa | 0 mm | - | 0 W/m² | - |
| 1778059856 | 8.33° C | 72% | 1018.4 hPa | 0 mm | - | 0 W/m² | - |
| 1778058949 | 8.89° C | 70% | 1018.5 hPa | 0 mm | - | 0 W/m² | - |
| 1778058646 | 8.89° C | 69% | 1018.4 hPa | 0 mm | - | 0 W/m² | - |
| 1778058344 | 9.44° C | 68% | 1018.5 hPa | 0 mm | - | 0 W/m² | - |
| 1778058040 | 9.44° C | 68% | 1018.2 hPa | 0 mm | - | 0 W/m² | - |
| 1778057737 | 8.89° C | 69% | 1018.6 hPa | 0 mm | - | 0 W/m² | - |
| 1778057433 | 8.89° C | 69% | 1018.4 hPa | 0 mm | - | 0 W/m² | - |
| 1778056826 | 8.89° C | 69% | 1018.4 hPa | 0 mm | - | 0 W/m² | - |
| 1778056524 | 8.89° C | 68% | 1018.5 hPa | 0 mm | - | 0 W/m² | - |
| 1778056221 | 9.44° C | 66% | 1018.5 hPa | 0 mm | - | 0 W/m² | - |
| 1778055918 | 10° C | 64% | 1018.4 hPa | 0 mm | - | 0 W/m² | - |
| 1778055312 | 10.56° C | 63% | 1018.4 hPa | 0 mm | - | 0 W/m² | - |
| 1778055009 | 11.67° C | 62% | 1018.6 hPa | 0 mm | - | 0 W/m² | - |
| 1778054404 | 11.67° C | 60% | 1018.4 hPa | 0 mm | - | 0 W/m² | - |
| 1778054101 | 11.67° C | 60% | 1018.5 hPa | 0 mm | - | 0 W/m² | - |
| 1778053495 | 11.67° C | 61% | 1018.7 hPa | 0 mm | - | 0 W/m² | - |
| 1778053192 | 11.11° C | 62% | 1018.8 hPa | 0 mm | - | 0 W/m² | - |
| 1778052587 | 11.67° C | 61% | 1018.7 hPa | 0 mm | - | 0 W/m² | - |
| 1778052284 | 11.67° C | 60% | 1018.8 hPa | 0 mm | - | 0 W/m² | - |
| 1778051982 | 11.67° C | 59% | 1018.8 hPa | 0 mm | - | 0 W/m² | - |
| 1778051073 | 10.56° C | 61% | 1018.6 hPa | 0 mm | - | 0 W/m² | - |
| 1778050770 | 10.56° C | 61% | 1018.5 hPa | 0 mm | - | 0 W/m² | - |
* Rain latest hour (hover to see other rain measurements)
** Current wind speed in m/s (hover to see current wind gust speed)